User: anonymous   Login
Location: ????? ????
(37.9717°N, 23.4051°E)
Time: 22:33:10
(UTC+00:00)
Language:

CZ-2C R/B - Orbit

View from above orbital plane
View from above orbital plane
View from above satellite
View from above satellite

Ground track
Ground track

The orbit data is extracted from the following two-line orbital elements,

1 31114U 07010B   24170.38365529  .00000172  00000-0  98688-4 0  9996
2 31114  98.3328 306.3798 0058655 325.9045  33.8370 14.19796670890403
Epoch (UTC): 18 June 2024 09:12:27
Eccentricity: 0.0058655
inclination: 98.3328°
perigee height: 784 km
apogee height: 868 km
right ascension of ascending node: 306.3798°
argument of perigee: 325.9045°
revolutions per day: 14.19796670
mean anomaly at epoch: 33.8370°
orbit number at epoch: 89040

The dashed part of the orbit path shows where the satellite is in the earth's shadow,  

DLR